Probability
90 87 84 84 81 71 71 81 90 90 81 71 45 29 45 32 35 45 68 90 94 90 90 77 77 81 74 74 71 68 58 52 52 48 39 23 19 16 13 16 13 10 6
87 87 77 71 74 71 68 61 68 71 71 74 71 65 68 48 58 58 45 71 84 84 84 81 84 71 68 61 58 55 48 48 45 35 32 29 23 16 13 13 10 3 3
77 81 74 68 68 58 65 68 68 68 61 61 65 58 65 71 58 61 45 52 52 71 71 74 74 58 58 52 48 52 52 45 42 42 26 26 16 16 13 13 10 6 3
74 68 71 68 61 61 55 61 68 65 61 61 48 52 42 48 58 48 35 35 29 19 42 58 55 58 55 52 45 42 45 45 42 32 23 19 13 10 3 3 3 0 0
61 65 61 58 55 55 52 45 48 52 52 45 39 42 39 39 32 23 23 26 29 26 23 26 45 42 48 39 42 42 39 32 26 26 23 13 10 0 0 0 0 0 0
52 55 52 52 52 48 48 45 42 45 45 42 16 13 23 29 26 16 19 19 23 19 23 13 13 16 32 29 29 32 23 23 23 16 10 3 3 0 0 0 0 0 0
39 45 45 42 45 39 42 42 39 39 29 32 16 13 6 13 13 19 19 16 6 13 10 13 13 10 10 16 23 26 19 16 16 13 6 3 0 0 0 0 0 0 0
42 39 39 42 39 42 45 45 26 23 19 23 16 3 3 0 3 3 13 13 13 13 10 6 16 13 6 6 3 13 10 10 13 3 3 3 0 0 0 0 0 0 0
39 32 26 29 35 35 35 32 26 29 13 16 6 6 0 0 0 3 3 10 10 6 3 10 10 6 3 0 3 3 6 3 6 3 3 0 0 0 0 0 0 0 0
26 26 26 26 26 29 26 23 23 16 13 10 6 3 0 0 0 0 0 0 0 0 3 6 3 3 3 0 0 3 0 0 0 0 0 0 0 0 0 0 0 0 0
19 19 19 19 23 23 19 13 10 10 10 10 6 0 0 0 0 0 0 0 0 0 3 3 3 3 3 0 0 0 0 0 0 0 0 0 0 0 0 0 0 0 0
19 13 16 16 16 16 13 13 10 10 10 6 3 3 0 0 0 0 0 0 0 0 0 3 0 0 0 0 0 0 0 0 0 0 0 0 0 0 0 0 0 0 0
10 13 13 16 16 13 10 10 10 10 10 3 3 0 0 0 0 0 0 0 0 0 0 0 0 0 0 0 0 0 0 0 0 0 0 0 0 0 0 0 0 0 0
3 6 10 6 3 3 3 3 6 3 3 3 0 0 0 0 0 0 0 0 0 0 0 0 0 0 0 0 0 0 0 0 0 0 0 0 0 0 0 0 0 0 0
3 3 0 0 0 3 3 3 3 3 0 0 0 0 0 0 0 0 0 0 0 0 0 0 0 0 0 0 0 0 0 0 0 0 0 0 0 0 0 0 0 0 0
0 0 0 0 0 0 0 0 0 0 0 0 0 0 0 0 0 0 0 0 0 0 0 0 0 0 0 0 0 0 0 0 0 0 0 0 0 0 0 0 0 0 0
0 0 0 0 0 0 0 0 0 0 0 0 0 0 0 0 0 0 0 0 0 0 0 0 0 0 0 0 0 0 0 0 0 0 0 0 0 0 0 0 0 0 0
0 0 0 0 0 0 0 0 0 0 0 0 0 0 0 0 0 0 0 0 0 0 0 0 0 0 0 0 0 0 0 0 0 0 0 0 0 0 0 0 0 0 0
0 0 0 0 0 0 0 0 0 0 0 0 0 0 0 0 0 0 0 0 0 0 0 0 0 0 0 0 0 0 0 0 0 0 0 0 0 0 0 0 0 0 0
0 0 0 0 0 0 0 0 0 0 0 0 0 0 0 0 0 0 0 0 0 0 0 0 0 0 0 0 0 0 0 0 0 0 0 0 0 0 0 0 0 0 0
0 0 0 0 0 0 0 0 0 0 0 0 0 0 0 0 0 0 0 0 0 0 0 0 0 0 0 0 0 0 0 0 0 0 0 0 0 0 0 0 0 0 0
0 0 0 0 0 0 0 0 0 0 0 0 0 0 0 0 0 0 0 0 0 0 0 0 0 0 0 0 0 0 0 0 0 0 0 0 0 0 0 0 0 0 0
0 0 0 0 0 0 0 0 0 0 0 0 0 0 0 0 0 0 0 0 0 0 0 0 0 0 0 0 0 0 0 0 0 0 0 0 0 0 0 0 0 0 0
0 0 0 0 0 0 0 0 0 0 0 0 0 0 0 0 0 0 0 0 0 0 0 0 0 0 0 0 0 0 0 0 0 0 0 0 0 0 0 0 0 0 0
0 0 0 0 0 0 0 0 0 0 0 0 0 0 0 0 0 0 0 0 0 0 0 0 0 0 0 0 0 0 0 0 0 0 0 0 0 0 0 0 0 0 0
0 0 0 0 0 0 0 0 0 0 0 0 0 0 0 0 0 0 0 0 0 0 0 0 0 0 0 0 0 0 0 0 0 0 0 0 0 0 0 0 0 0 0
Height
5870 5870 5870 5870 5869 5869 5869 5870 5872 5873 5874 5875 5876 5877 5878 5878 5879 5879 5881 5881 5882 5882 5883 5884 5885 5886 5887 5888 5889 5889 5889 5890 5890 5890 5890 5890 5890 5890 5890 5890 5890 5890 5890
5864 5864 5864 5865 5864 5864 5865 5866 5866 5867 5869 5870 5871 5871 5872 5873 5873 5875 5876 5877 5878 5879 5879 5880 5881 5882 5883 5884 5885 5885 5886 5886 5886 5886 5886 5886 5886 5886 5886 5886 5886 5886 5886
5859 5859 5859 5860 5859 5858 5859 5860 5861 5862 5863 5865 5865 5866 5867 5867 5868 5869 5870 5872 5873 5874 5875 5876 5876 5877 5878 5879 5880 5881 5881 5882 5882 5882 5882 5882 5882 5882 5882 5882 5882 5881 5881
5852 5853 5853 5854 5853 5853 5853 5854 5855 5856 5857 5859 5859 5860 5861 5863 5863 5864 5864 5865 5867 5868 5869 5870 5871 5872 5873 5874 5875 5876 5876 5877 5877 5877 5877 5877 5877 5877 5877 5877 5876 5876 5875
5847 5847 5846 5847 5846 5847 5847 5848 5849 5850 5851 5852 5853 5854 5855 5856 5857 5857 5858 5860 5861 5863 5863 5864 5866 5867 5868 5869 5870 5870 5871 5871 5871 5872 5872 5872 5871 5871 5871 5871 5870 5870 5869
5841 5841 5840 5839 5839 5840 5841 5841 5842 5842 5844 5845 5846 5848 5849 5850 5851 5852 5853 5855 5856 5857 5858 5859 5860 5861 5862 5863 5864 5865 5865 5865 5866 5866 5866 5865 5865 5865 5865 5864 5864 5863 5862
5835 5834 5834 5833 5833 5833 5834 5835 5836 5837 5837 5838 5839 5841 5842 5843 5845 5846 5847 5848 5849 5850 5851 5853 5854 5854 5855 5857 5858 5858 5859 5859 5859 5859 5859 5859 5858 5858 5857 5857 5856 5855 5855
5829 5828 5828 5826 5826 5827 5827 5828 5829 5830 5831 5832 5833 5834 5835 5837 5838 5839 5840 5842 5843 5844 5845 5846 5847 5848 5849 5849 5850 5852 5852 5852 5852 5852 5852 5851 5851 5851 5850 5849 5848 5847 5846
5822 5821 5821 5820 5819 5820 5821 5822 5822 5823 5824 5825 5826 5827 5828 5830 5830 5832 5833 5835 5836 5837 5838 5839 5840 5841 5842 5842 5843 5844 5844 5845 5845 5844 5844 5843 5843 5843 5842 5841 5840 5839 5837
5815 5814 5814 5814 5814 5814 5814 5815 5815 5815 5817 5818 5819 5820 5822 5822 5823 5825 5826 5827 5828 5829 5830 5831 5833 5833 5834 5835 5835 5836 5836 5836 5836 5836 5836 5835 5834 5833 5833 5832 5831 5829 5828
5809 5808 5807 5807 5807 5807 5807 5807 5808 5808 5809 5810 5811 5812 5814 5815 5816 5817 5819 5820 5821 5821 5822 5823 5824 5825 5826 5827 5827 5828 5828 5828 5828 5828 5827 5826 5826 5825 5824 5823 5821 5820 5819
5802 5802 5801 5800 5800 5800 5800 5801 5801 5801 5802 5803 5804 5805 5806 5807 5808 5810 5811 5812 5813 5814 5815 5816 5816 5817 5818 5818 5819 5819 5820 5820 5819 5819 5818 5818 5817 5816 5815 5813 5812 5810 5809
5795 5795 5795 5794 5793 5793 5794 5794 5794 5795 5795 5796 5797 5798 5799 5800 5801 5802 5803 5804 5805 5806 5807 5808 5808 5809 5809 5810 5811 5811 5811 5811 5810 5810 5809 5808 5808 5807 5806 5804 5802 5801 5799
5789 5788 5788 5788 5787 5787 5787 5788 5788 5788 5789 5789 5790 5791 5792 5792 5793 5794 5796 5796 5797 5798 5799 5800 5800 5800 5801 5802 5802 5802 5802 5802 5802 5801 5800 5800 5799 5798 5796 5795 5793 5791 5789
5782 5782 5781 5781 5781 5781 5782 5782 5782 5782 5782 5782 5783 5784 5785 5786 5787 5788 5788 5789 5790 5790 5791 5792 5792 5793 5793 5794 5794 5794 5794 5794 5793 5792 5791 5791 5790 5789 5787 5786 5784 5782 5780
5775 5775 5775 5775 5775 5775 5775 5775 5775 5775 5776 5776 5776 5777 5778 5779 5780 5781 5781 5782 5783 5783 5784 5784 5785 5785 5786 5786 5786 5786 5786 5785 5785 5784 5783 5782 5780 5779 5778 5776 5774 5772 5770
5769 5769 5769 5768 5769 5769 5769 5769 5769 5769 5770 5770 5770 5771 5772 5773 5773 5774 5775 5775 5775 5776 5777 5777 5778 5778 5778 5778 5778 5778 5777 5777 5776 5775 5774 5773 5772 5770 5768 5766 5764 5761 5759
5763 5763 5763 5762 5762 5762 5763 5763 5763 5764 5764 5764 5765 5765 5766 5766 5767 5767 5768 5768 5768 5769 5770 5770 5770 5770 5770 5771 5771 5770 5770 5769 5768 5767 5765 5764 5763 5761 5759 5756 5754 5752 5749
5757 5757 5757 5757 5757 5757 5757 5757 5757 5758 5758 5758 5759 5759 5760 5760 5760 5761 5761 5762 5762 5763 5763 5763 5763 5763 5763 5763 5762 5762 5761 5760 5759 5758 5756 5755 5753 5751 5749 5747 5745 5742 5740
5752 5751 5751 5751 5751 5751 5751 5752 5752 5752 5752 5753 5753 5753 5754 5754 5755 5755 5755 5756 5756 5756 5756 5756 5756 5756 5756 5755 5754 5754 5753 5752 5751 5750 5748 5746 5744 5742 5740 5738 5735 5733 5731
5746 5746 5746 5746 5745 5746 5746 5746 5746 5747 5747 5748 5748 5748 5749 5749 5749 5750 5750 5750 5750 5750 5750 5750 5750 5749 5748 5748 5747 5746 5745 5744 5742 5741 5739 5737 5735 5733 5731 5729 5727 5725 5723
5741 5741 5741 5741 5741 5741 5741 5741 5742 5742 5742 5743 5744 5744 5744 5744 5744 5745 5745 5745 5745 5745 5744 5744 5743 5743 5742 5741 5740 5739 5738 5736 5735 5733 5731 5730 5728 5726 5724 5721 5719 5717 5715
5736 5736 5736 5736 5736 5737 5737 5737 5737 5738 5738 5739 5739 5740 5740 5740 5740 5740 5740 5739 5739 5739 5739 5738 5738 5737 5736 5735 5734 5732 5731 5729 5728 5726 5724 5722 5720 5719 5717 5715 5713 5711 5709
5732 5732 5732 5732 5732 5733 5733 5733 5734 5734 5734 5735 5735 5735 5736 5736 5735 5735 5735 5735 5734 5734 5733 5733 5732 5731 5730 5729 5727 5726 5724 5723 5721 5719 5717 5716 5714 5713 5711 5709 5707 5705 5703
5728 5728 5728 5729 5729 5729 5730 5730 5731 5731 5731 5731 5732 5732 5732 5732 5732 5731 5731 5731 5730 5729 5729 5728 5727 5726 5725 5723 5722 5721 5719 5718 5716 5714 5712 5711 5709 5707 5705 5704 5701 5700 5698
5725 5725 5725 5726 5726 5727 5727 5728 5728 5728 5729 5729 5729 5729 5729 5729 5728 5728 5727 5727 5726 5725 5725 5724 5723 5721 5720 5719 5718 5716 5715 5713 5712 5710 5708 5707 5705 5703 5701 5699 5697 5696 5694
Wind_Speed
25 25 25 25 26 26 25 24 24 25 24 24 24 23 22 22 22 21 20 20 20 19 19 19 18 18 17 17 17 17 17 16 16 16 16 16 16 16 16 17 17 18 18
26 26 26 27 27 26 26 26 26 25 26 26 26 25 24 24 23 22 22 22 22 22 21 21 21 20 20 20 19 19 19 19 18 18 18 19 19 19 19 19 20 20 20
28 28 28 28 28 27 27 27 28 27 27 27 28 27 26 25 24 23 23 24 23 23 23 23 23 23 22 22 22 21 21 21 21 21 21 21 21 21 21 21 22 23 23
30 30 29 30 29 29 29 29 29 28 28 28 28 27 27 26 26 25 24 24 24 24 24 24 24 24 24 24 23 23 22 22 23 23 23 23 23 23 24 24 25 26 27
30 31 31 32 32 31 30 31 31 30 28 29 29 28 27 27 27 27 26 26 26 25 24 24 25 25 25 25 25 25 24 25 25 25 25 25 26 26 27 28 28 29 30
31 32 32 32 32 31 32 31 32 31 30 29 30 29 29 29 28 28 28 28 27 26 25 25 26 27 27 27 27 27 28 28 28 27 26 27 28 28 29 30 30 31 32
32 32 32 32 32 31 31 30 30 31 31 30 29 30 31 31 30 29 30 29 28 28 28 28 28 28 28 29 29 29 29 30 30 30 31 31 31 31 31 31 33 34 35
32 32 32 32 32 32 31 30 29 30 30 31 31 31 31 32 31 31 32 32 31 31 30 31 30 31 31 32 31 31 31 32 33 33 34 34 34 33 34 35 36 36 36
32 32 32 31 31 31 31 31 31 31 31 32 33 33 32 31 31 32 32 32 32 32 33 33 33 33 33 34 34 34 34 34 35 35 36 37 36 36 36 37 37 38 39
32 32 31 32 31 31 30 30 31 32 32 33 33 33 33 32 32 33 32 32 33 34 34 34 34 34 34 35 36 36 36 37 37 37 38 38 37 37 37 38 39 39 40
31 31 32 31 31 30 30 31 32 32 32 32 33 32 32 32 32 32 31 31 32 34 34 34 34 35 35 36 36 37 38 37 37 38 39 39 38 39 39 39 40 40 41
29 30 30 31 31 30 30 30 31 31 32 32 32 32 32 33 32 32 31 31 32 32 33 34 35 35 36 36 37 37 38 38 38 38 39 39 39 39 39 40 40 41 41
29 28 29 29 29 30 29 30 30 31 30 31 31 32 32 32 32 31 31 30 31 32 33 34 35 36 35 35 35 36 36 36 36 37 38 37 37 38 39 39 40 40 41
28 28 28 28 28 28 28 28 28 29 29 29 29 29 30 30 30 30 30 31 32 32 33 33 34 33 33 33 33 34 35 34 35 36 36 36 37 38 39 39 40 41 41
28 28 27 27 27 27 27 27 28 27 27 27 28 28 29 29 30 30 30 30 30 31 31 31 31 31 32 32 32 33 34 34 35 34 35 36 37 38 38 38 38 40 41
26 27 27 27 27 27 26 26 27 27 27 27 27 27 28 27 28 29 28 28 28 29 30 29 29 28 29 31 32 33 33 34 34 34 35 36 36 36 37 38 38 40 40
25 26 25 26 26 26 26 25 25 26 26 26 27 27 27 28 28 29 28 27 27 28 29 30 30 30 30 30 31 31 31 33 34 35 36 36 36 37 38 39 40 39 39
25 25 25 25 25 25 25 25 25 25 24 24 25 26 26 27 27 27 27 26 26 27 28 29 29 28 29 29 30 31 32 33 34 34 35 35 36 37 37 37 38 37 36
23 23 23 24 24 23 23 24 24 24 24 23 24 25 25 26 26 25 25 25 25 25 26 27 28 28 29 29 30 30 31 32 33 33 34 35 35 35 35 35 35 34 34
22 22 22 23 23 22 22 23 22 22 22 22 23 23 23 22 22 22 23 23 23 23 24 25 25 27 27 28 29 29 30 30 31 32 32 33 33 33 33 32 32 32 31
20 20 20 20 21 21 21 21 20 20 20 20 20 20 19 19 19 20 21 21 22 22 23 24 24 25 25 26 27 27 27 28 29 30 30 31 31 31 30 30 29 29 28
17 17 17 17 18 17 17 18 18 17 17 17 17 17 18 18 18 18 19 20 21 21 21 21 22 23 24 24 24 25 26 26 27 28 28 28 27 27 27 27 26 25 25
16 16 16 15 14 15 15 15 15 16 16 16 16 16 17 17 17 17 18 18 18 19 20 20 21 22 22 22 23 24 24 24 24 24 24 24 23 24 23 23 23 23 23
15 15 15 15 14 14 14 13 13 13 13 13 14 14 15 15 16 16 16 17 17 18 18 18 18 19 19 20 21 21 21 22 22 20 20 21 21 21 21 21 21 21 21
14 13 13 13 12 12 12 11 11 11 11 11 11 12 12 12 12 13 14 15 15 16 15 16 16 17 18 18 18 18 18 18 18 19 19 19 19 19 19 19 19 19 19
11 11 11 10 10 9 9 9 9 9 9 9 10 10 10 10 11 11 12 13 13 14 14 15 15 16 16 16 16 16 16 16 17 17 17 17 18 18 18 17 17 17 17
Wind_Direction
272 273 273 271 269 268 265 263 262 261 261 261 261 262 263 265 264 262 259 259 258 255 253 253 253 253 254 256 258 259 260 262 264 266 267 267 267 267 268 271 273 274 275
273 273 273 272 269 268 266 264 264 263 264 264 262 260 262 263 262 261 260 259 260 259 256 254 254 254 254 255 257 259 261 262 264 266 268 268 268 270 271 272 274 276 277
272 272 271 270 269 267 265 265 266 264 264 262 262 261 263 263 261 262 261 260 261 261 260 257 255 254 254 255 257 258 261 264 265 266 268 268 268 269 270 272 274 276 278
272 271 270 270 268 269 268 267 266 263 262 262 263 263 263 264 263 262 262 262 264 262 259 259 257 257 256 256 257 259 262 264 266 267 268 268 268 270 271 272 274 276 278
275 274 273 271 270 270 269 268 267 262 261 262 262 261 261 262 263 261 260 263 265 262 260 259 258 257 257 257 259 261 262 265 266 268 270 270 270 270 273 275 276 278 279
275 276 276 274 271 268 268 268 265 261 262 262 262 261 260 260 264 262 263 265 264 262 262 261 260 259 257 258 261 263 264 265 266 267 269 272 273 273 274 276 278 280 281
278 279 278 277 273 271 270 264 263 261 261 261 264 265 263 261 262 264 264 264 264 262 262 261 261 260 258 260 261 264 265 266 267 268 270 273 274 276 277 278 281 282 283
279 278 277 276 273 271 269 263 263 263 261 261 263 265 265 262 261 262 263 263 263 262 263 263 261 261 260 260 261 264 266 267 268 271 273 274 275 277 278 280 281 282 284
278 278 275 274 273 270 268 267 266 263 262 263 264 265 264 262 261 262 261 259 260 261 262 262 260 261 261 261 263 264 266 268 269 272 274 276 276 277 279 281 282 283 283
277 277 277 276 276 272 269 268 266 263 263 262 263 264 263 261 260 260 260 259 260 260 261 260 259 262 262 262 263 264 266 270 270 270 273 276 277 278 279 280 282 284 284
276 277 278 277 275 273 272 269 267 265 265 263 262 263 264 263 261 261 261 261 261 260 261 260 260 262 262 263 264 266 268 270 268 269 274 276 278 279 280 281 281 282 284
276 277 279 278 276 274 273 271 269 269 267 264 263 263 264 263 263 262 263 262 261 260 261 261 261 262 264 263 264 266 268 268 269 272 275 277 277 278 281 282 282 283 284
277 277 278 278 277 274 274 273 272 271 270 267 264 263 263 261 262 263 264 264 261 262 262 263 264 265 266 264 264 266 267 269 271 273 276 277 278 279 282 283 284 285 285
278 277 278 277 277 275 275 274 274 272 271 269 266 264 263 262 262 261 263 264 262 262 264 265 265 265 266 265 266 267 268 271 273 275 277 279 280 281 284 286 287 287 288
278 277 279 278 276 276 276 275 274 273 272 269 267 266 264 262 262 263 264 264 263 263 264 266 266 267 268 269 270 270 272 274 277 280 282 283 283 284 285 287 288 290 291
277 276 277 276 276 274 275 275 274 272 271 270 268 268 264 264 264 265 265 265 266 266 267 268 270 272 273 273 275 276 277 279 281 283 284 286 287 288 288 289 290 291 292
278 277 277 276 275 275 274 273 273 271 271 269 268 267 267 267 267 266 266 267 268 269 271 273 274 277 278 280 281 282 282 283 284 285 286 288 289 290 290 290 291 292 293
279 279 278 276 275 274 272 271 272 271 271 269 270 268 269 271 270 268 268 269 272 275 275 276 277 280 282 284 284 284 285 286 287 287 288 289 290 291 292 292 293 293 293
277 278 278 277 276 274 272 272 273 273 273 271 271 270 270 272 273 272 273 274 275 275 277 277 277 279 282 284 284 285 286 287 288 289 290 290 291 292 293 293 293 293 293
278 278 278 276 275 273 274 274 274 275 273 272 273 274 275 275 277 277 277 278 280 282 282 281 281 281 283 284 285 287 288 288 289 291 292 293 294 294 294 294 293 293 293
281 280 280 277 276 277 276 276 277 278 278 277 277 278 279 279 278 281 283 285 287 289 287 284 284 285 286 287 288 289 290 291 293 294 294 295 295 294 293 293 292 293 293
280 281 280 279 277 276 275 274 278 279 277 280 280 279 281 282 284 287 289 290 290 291 290 289 288 288 289 289 290 291 292 293 294 296 296 296 294 293 293 294 294 294 294
278 279 278 281 277 279 278 276 280 281 278 280 282 281 283 285 285 287 290 292 293 294 293 294 292 291 293 294 295 295 295 296 296 297 297 297 297 297 297 297 297 296 294
276 276 277 278 276 276 278 277 279 281 283 285 285 284 284 285 286 289 291 293 295 296 296 298 298 298 298 298 297 297 298 299 299 299 299 301 301 301 300 300 299 297 297
274 274 276 276 275 276 277 280 285 286 286 286 288 288 288 289 292 293 293 295 297 298 299 300 301 301 300 300 300 300 301 301 302 302 304 304 304 304 304 303 302 302 302
275 271 272 275 274 275 275 277 283 286 289 289 291 294 295 295 296 297 298 300 301 302 303 303 303 304 304 304 305 305 305 306 306 306 306 305 305 305 305 304 303 302 303